Home > Weather > Hiroshima > Past weeks

Flag for Japan Past Weather in Hiroshima, Japan — Yesterday and Last 2 Weeks

Now
72 °F

Mostly cloudy.


Feels Like: 67 °F
Forecast: 68 / 80 °F
Wind: 3 mph from Southeast

Location: Iwakuni Marine Corps Air Station

Current Time: Jun 30, 2016 at 3:11:00 AM

Latest Report: Jun 30, 2016 at 1:55 AM


Visibility: N/A

Pressure: 29.90 "Hg

Humidity: 97%

Dew Point: 71 °F

Location of HiroshimaLocation

Past Weather in Hiroshima — Graph

°F

Hiroshima Temperature Yesterday

Maximum temperature yesterday: 74 °F (at 4:55 PM)
Minimum temperature yesterday: 70 °F (at 4:55 AM)
Average temperature yesterday: 72 °F

High & Low Weather Summary for the Past Weeks

 TemperatureHumidityPressure
High87 °F (Jun 17, 2:55 PM)100% (Jun 20, 5:55 AM)29.98 "Hg (Jun 20, 5:55 AM)
Low66 °F (Jun 18, 4:55 AM)56% (Jun 26, 5:55 PM)29.49 "Hg (Jun 24, 8:55 PM)
Average75 °F86%29.76 "Hg
* Reported Jun 15 1:55 AM — Jun 30 1:55 AM, Hiroshima, Weather by CustomWeather, © 2016

Note: Actual official high and low records may vary slightly from our data, if they occured in-between our weather recording intervals... More about our weather records

Advertising

Hiroshima Weather History for the Previous 24 Hours

Scroll right to see more
 ConditionsComfort  
Time TempWeatherWind HumidityBarometerVisibility
1:55 AM
Thu, Jun 30
72 °FMostly cloudy.3 mph97%29.90 "HgN/A
12:55 AM72 °FSprinkles. Mostly cloudy.No wind97%29.90 "HgN/A
11:55 PM
Wed, Jun 29
73 °FMostly cloudy.No wind97%29.90 "HgN/A
10:55 PM73 °FOvercast.No wind97%29.90 "HgN/A
9:55 PM73 °FMostly cloudy.No wind94%29.89 "HgN/A
8:55 PM73 °FMostly cloudy.No wind97%29.90 "HgN/A
7:55 PM74 °FMostly cloudy.No wind94%29.89 "HgN/A
6:55 PM74 °FSprinkles. Fog.7 mph97%29.87 "Hg6 mi
5:55 PM74 °FFog.5 mph94%29.88 "Hg5 mi
4:55 PM74 °FSprinkles. Fog.5 mph94%29.87 "Hg5 mi
3:55 PM73 °FSprinkles. Fog.3 mph94%29.88 "Hg5 mi
2:55 PM73 °FFog.5 mph97%29.86 "Hg5 mi
1:55 PM73 °FSprinkles. Fog.3 mph97%29.87 "Hg2 mi
12:55 PM72 °FRain showers. Fog.5 mph97%29.90 "Hg1 mi
11:55 AM71 °FLots of rain. Fog.No wind96%29.90 "Hg1 mi
10:55 AM71 °FLots of rain. Fog.3 mph96%29.89 "Hg1 mi
9:55 AM71 °FRain showers. Fog.5 mph96%29.88 "Hg1 mi
8:55 AM70 °FLots of rain. Fog.No wind97%29.91 "Hg1 mi
7:55 AM70 °FSprinkles. Fog.3 mph97%29.91 "Hg3 mi
6:55 AM71 °FSprinkles. Fog.3 mph93%29.91 "Hg3 mi
5:55 AM70 °FFog.3 mph97%29.91 "Hg3 mi
4:55 AM70 °FSprinkles. Fog.No wind97%29.91 "Hg4 mi
3:55 AM71 °FSprinkles. Fog.No wind93%29.91 "Hg5 mi
Weather by CustomWeather, © 2016

See weather overviewHow to use our weather pages